Miscellaneous Local Product
Issued by NWS Hastings, NE

Home | Current Version | Previous Version | Graphics & Text | Print | Product List | Glossary On
Versions: 1 2 3 4 5 6 7 8 9 10 11 12 13 14 15 16 17 18 19 20 21 22 23 24 25 26 27 28 29 30 31 32 33 34 35 36 37 38 39 40 41 42 43 44 45 46 47 48 49 50
980
AXUS43 KGID 201202
MISGRI

GID CWA HOURLY WEATHER ROUNDUP
NATIONAL WEATHER SERVICE HASTINGS NE
700 AM CDT FRI APR 20 2018

NOTE: "FAIR" INDICATES FEW OR NO CLOUDS BELOW 12,000 FEET WITH NO
SIGNIFICANT WEATHER AND/OR OBSTRUCTIONS TO VISIBILITY.

...SOUTH CENTRAL NEBRASKA...

CITY           SKY/WX    TMP DP  RH WIND       PRES   REMARKS
GRAND ISLAND   CLOUDY    38  28  67 SE10      30.34R WCI  31
KEARNEY        CLOUDY    36  28  73 SE8       30.30F WCI  30
HASTINGS       CLOUDY    37  28  70 SE9       30.33R WCI  30
ORD            CLOUDY    35  28  75 SE6       30.29F WCI  30
YORK             N/A     36  32  87 SE8       30.36R WCI  29
AURORA         CLOUDY    34  28  79 SE6       30.35R WCI  29
LEXINGTON      CLOUDY    40  30  65 SE8       30.26S
HOLDREGE       CLOUDY    40  31  71 SE9       30.27S WCI  34
HEBRON         CLOUDY    38  31  76 SE7       30.36R WCI  33

...NEBRASKA PANHANDLE...

CITY           SKY/WX    TMP DP  RH WIND       PRES   REMARKS
CHADRON        CLOUDY    44  28  53 S9        30.08R
ALLIANCE       CLOUDY    40  28  62 SE24G36   30.08R WCI  29
SCOTTSBLUFF    CLOUDY    40  29  64 SE16      30.06S WCI  31
SIDNEY         CLOUDY    38  27  64 SE22G30   30.06S WCI  27

...WESTERN AND NORTH CENTRAL NEBRASKA...

CITY           SKY/WX    TMP DP  RH WIND       PRES   REMARKS
VALENTINE      CLOUDY    33  28  81 E8        30.23S WCI  26
AINSWORTH      CLOUDY    37  29  72 S12       30.24F WCI  30
ONEILL         CLOUDY    37  32  81 SE8       30.32S WCI  31
BROKEN BOW     CLOUDY    36  27  69 SE9       30.26F WCI  29
IMPERIAL       CLOUDY    40  28  62 E17G26    30.16R WCI  31
NORTH PLATTE   CLOUDY    43  27  53 S12       30.21S
MCCOOK         CLOUDY    42  27  55 SE14G20   30.21F

...EASTERN NEBRASKA...

CITY           SKY/WX    TMP DP  RH WIND       PRES   REMARKS
NORFOLK        MOCLDY    33  28  81 SE7       30.37R WCI  27
SO SIOUX CITY  MOCLDY    31  25  78 E9        30.43R WCI  23
TEKAMAH        PTCLDY    31  26  82 SE3       30.43R
COLUMBUS       MOCLDY    33  28  81 E8        30.39R WCI  26
ALBION         PTCLDY    33  29  86 SE7       30.35S WCI  27
OMAHA EPPLEY   CLOUDY    36  27  69 SE7       30.44R WCI  30
OFFUTT AFB     CLOUDY    28  24  83 E5        30.42R WCI  23
MILLARD        CLOUDY    37  28  68 SE3       30.43R
LINCOLN        CLOUDY    34  27  75 CALM      30.41R
NEBRASKA CITY  CLOUDY    36  28  73 SE5       30.42R WCI  32
BEATRICE       PTCLDY    38  30  72 E5        30.39R WCI  35
FALLS CITY     PTCLDY    35  27  72 E3        30.43

...NORTHERN KANSAS...

CITY           SKY/WX    TMP DP  RH WIND       PRES   REMARKS
GOODLAND       CLOUDY    41  29  62 S29G36    30.10F
HILL CITY      PTCLDY    43  28  55 SE12      30.25S
NORTON         CLOUDY    41  28  60 SE12      30.24S
PHILLIPSBURG   CLOUDY    43  28  56 E9        30.28S
SMITH CENTER   CLEAR     39  28  65 E10       30.31S WCI  32
BELOIT         CLOUDY    36  27  69 CALM      30.35R
HAYS           CLOUDY    42  29  59 SE12      30.27F
RUSSELL        CLOUDY    44  31  60 SE18      30.27F
CONCORDIA      CLOUDY    39  30  70 E6        30.35R WCI  35
SALINA         CLOUDY    42  32  67 SE10      30.35S
TOPEKA         CLOUDY    33  29  85 E5        30.42R WCI  29



USA.gov is the U.S. government's official web portal to all federal, state and local government web resources and services.